History for KNYNEWYO831

west village, New York City, NY — Current Conditions
Daily Summary for September 21, 2018
  Current: High: Low: Average:
Temperature: 71.6°F 71.6°F 67.6°F 69.6°F
Dew Point: 64.4°F 64.4°F 59.7°F 61.5°F
Humidity: 78% 79% 73% 77%
Wind Speed: 1.8mph 19.9mph - 6.0mph
Wind Gust: 4.9mph 22.4mph - -
Wind: NE - - NE
Pressure: 30.09in 30.24in 30.08in -
Precipitation: 0.00in      
Solar Radiation: 113 watts/m^2      
UV Index: 2.0      
Statistics for the rest of the month
    High: Low: Average:
Temperature:   92.1°F 55.8°F 73.5°F
Dew Point:   78.3°F 44.8°F 63.8°F
Humidity:   99.0% 51.0% 77.5%
Wind Speed:   38.9mph from the West - 4.4mph
Wind Gust:   52.6mph from the West - -
Wind:   - - SE
Pressure:   30.30in 29.70in -
Precipitation:   4.25in    
KNYNEWYO831 Weather Graph
Tabular Data for September 21, 2018
Time Temp. Dew Point Pressure Wind Gust Humidity Rainfall Solar Radiation
00:04 67.8°F 60.8°F 30.22in 12.3mph 78% 0in 0.00 watts/m^2
00:09 67.8°F 60.8°F 30.23in 17.4mph 78% 0in 0.00 watts/m^2
00:14 67.8°F 60.4°F 30.23in 2.5mph 77% 0in 0.00 watts/m^2
00:19 67.8°F 60.1°F 30.23in 17.4mph 76% 0in 0.00 watts/m^2
00:24 67.8°F 60.4°F 30.23in 17.4mph 77% 0in 0.00 watts/m^2
00:29 67.8°F 60.4°F 30.23in 7.4mph 77% 0in 0.00 watts/m^2
00:34 67.8°F 60.4°F 30.22in 9.8mph 77% 0in 0.00 watts/m^2
00:39 67.8°F 60.4°F 30.23in 4.9mph 77% 0in 0.00 watts/m^2
00:44 67.8°F 60.1°F 30.22in 15mph 76% 0in 0.00 watts/m^2
00:49 67.8°F 60.4°F 30.23in 12.3mph 77% 0in 0.00 watts/m^2
00:54 67.8°F 60.4°F 30.23in 12.3mph 77% 0in 0.00 watts/m^2
00:59 67.8°F 60.8°F 30.23in 9.8mph 78% 0in 0.00 watts/m^2
01:04 67.6°F 60.6°F 30.22in 7.4mph 78% 0in 0.00 watts/m^2
01:09 67.6°F 60.3°F 30.22in 9.8mph 77% 0in 0.00 watts/m^2
01:14 67.6°F 60.3°F 30.22in 12.3mph 77% 0in 0.00 watts/m^2
01:19 67.6°F 60.3°F 30.23in 2.5mph 77% 0in 0.00 watts/m^2
01:24 67.6°F 60.3°F 30.22in 12.3mph 77% 0in 0.00 watts/m^2
01:29 67.6°F 60.3°F 30.22in 15mph 77% 0in 0.00 watts/m^2
01:34 67.6°F 60.3°F 30.22in 9.8mph 77% 0in 0.00 watts/m^2
01:39 67.6°F 60.3°F 30.22in 4.9mph 77% 0in 0.00 watts/m^2
01:44 67.6°F 60.3°F 30.22in 4.9mph 77% 0in 0.00 watts/m^2
01:49 67.8°F 59.7°F 30.22in 7.4mph 75% 0in 0.00 watts/m^2
01:54 67.8°F 60.1°F 30.21in 7.4mph 76% 0in 0.00 watts/m^2
01:59 67.8°F 60.1°F 30.21in 9.8mph 76% 0in 0.00 watts/m^2
02:04 67.8°F 60.1°F 30.21in 7.4mph 76% 0in 0.00 watts/m^2
02:09 67.8°F 60.1°F 30.22in 7.4mph 76% 0in 0.00 watts/m^2
02:14 67.8°F 59.7°F 30.21in 17.4mph 75% 0in 0.00 watts/m^2
02:19 67.8°F 60.1°F 30.20in 9.8mph 76% 0in 0.00 watts/m^2
02:24 67.8°F 60.1°F 30.20in 7.4mph 76% 0in 0.00 watts/m^2
02:29 67.8°F 60.4°F 30.21in 9.8mph 77% 0in 0.00 watts/m^2
02:34 67.8°F 60.4°F 30.21in 7.4mph 77% 0in 0.00 watts/m^2
02:39 67.8°F 60.4°F 30.21in 9.8mph 77% 0in 0.00 watts/m^2
02:44 67.8°F 60.8°F 30.20in 4.9mph 78% 0in 0.00 watts/m^2
02:49 67.8°F 60.8°F 30.21in 2.5mph 78% 0in 0.00 watts/m^2
02:54 67.8°F 60.8°F 30.20in 12.3mph 78% 0in 0.00 watts/m^2
02:59 67.8°F 60.4°F 30.19in 7.4mph 77% 0in 0.00 watts/m^2
03:04 67.8°F 60.8°F 30.20in 7.4mph 78% 0in 0.00 watts/m^2
03:09 68°F 60.6°F 30.20in 7.4mph 77% 0in 0.00 watts/m^2
03:14 68°F 60.6°F 30.20in 7.4mph 77% 0in 0.00 watts/m^2
03:19 68°F 60.3°F 30.22in 4.9mph 76% 0in 0.00 watts/m^2
03:24 68°F 60.3°F 30.21in 9.8mph 76% 0in 0.00 watts/m^2
03:29 68°F 60.3°F 30.21in 4.9mph 76% 0in 0.00 watts/m^2
03:34 68°F 60.3°F 30.20in 7.4mph 76% 0in 0.00 watts/m^2
03:39 68°F 60.3°F 30.21in 4.9mph 76% 0in 0.00 watts/m^2
03:44 68°F 60.3°F 30.20in 2.5mph 76% 0in 0.00 watts/m^2
03:49 68°F 60.3°F 30.20in 7.4mph 76% 0in 0.00 watts/m^2
03:54 68°F 60.6°F 30.20in 0mph 77% 0in 0.00 watts/m^2
03:59 68°F 60.3°F 30.20in 2.5mph 76% 0in 0.00 watts/m^2
04:04 68°F 60.3°F 30.21in 4.9mph 76% 0in 0.00 watts/m^2
04:09 68°F 60.3°F 30.21in 7.4mph 76% 0in 0.00 watts/m^2
04:14 68°F 60.3°F 30.20in 4.9mph 76% 0in 0.00 watts/m^2
04:19 68°F 59.9°F 30.21in 2.5mph 75% 0in 0.00 watts/m^2
04:24 68°F 60.3°F 30.20in 4.9mph 76% 0in 0.00 watts/m^2
04:29 68°F 60.3°F 30.21in 9.8mph 76% 0in 0.00 watts/m^2
04:34 68°F 60.3°F 30.21in 2.5mph 76% 0in 0.00 watts/m^2
04:39 68°F 60.3°F 30.21in 7.4mph 76% 0in 0.00 watts/m^2
04:44 68.2°F 60.4°F 30.21in 17.4mph 76% 0in 0.00 watts/m^2
04:49 68°F 60.6°F 30.21in 7.4mph 77% 0in 0.00 watts/m^2
04:54 68°F 60.6°F 30.21in 7.4mph 77% 0in 0.00 watts/m^2
04:59 68°F 60.6°F 30.21in 9.8mph 77% 0in 0.00 watts/m^2
05:04 68°F 60.6°F 30.21in 7.4mph 77% 0in 0.00 watts/m^2
05:09 68°F 60.6°F 30.22in 2.5mph 77% 0in 0.00 watts/m^2
05:14 68°F 60.6°F 30.22in 7.4mph 77% 0in 0.00 watts/m^2
05:19 68°F 60.6°F 30.21in 7.4mph 77% 0in 0.00 watts/m^2
05:24 68.2°F 60.8°F 30.21in 4.9mph 77% 0in 0.00 watts/m^2
05:29 68.2°F 60.4°F 30.21in 9.8mph 76% 0in 0.00 watts/m^2
05:34 68.2°F 60.8°F 30.21in 4.9mph 77% 0in 0.00 watts/m^2
05:39 68.2°F 60.4°F 30.22in 17.4mph 76% 0in 0.00 watts/m^2
05:44 68.2°F 60.4°F 30.22in 7.4mph 76% 0in 0.00 watts/m^2
05:49 68.2°F 60.4°F 30.22in 9.8mph 76% 0in 0.00 watts/m^2
05:54 68.2°F 60.4°F 30.22in 12.3mph 76% 0in 0.00 watts/m^2
05:59 68.2°F 60.4°F 30.22in 2.5mph 76% 0in 0.00 watts/m^2
06:04 68.4°F 60.6°F 30.23in 2.5mph 76% 0in 0.00 watts/m^2
06:09 68.4°F 60.6°F 30.22in 4.9mph 76% 0in 0.00 watts/m^2
06:14 68.4°F 60.6°F 30.22in 12.3mph 76% 0in 0.00 watts/m^2
06:19 68.2°F 61.2°F 30.22in 12.3mph 78% 0in 0.00 watts/m^2
06:24 68.2°F 61.2°F 30.22in 15mph 78% 0in 0.00 watts/m^2
06:29 68.2°F 61.5°F 30.22in 4.9mph 79% 0in 0.00 watts/m^2
06:34 68°F 61.3°F 30.22in 9.8mph 79% 0in 0.00 watts/m^2
06:39 68°F 61°F 30.22in 9.8mph 78% 0in 0.00 watts/m^2
06:44 68°F 61°F 30.22in 12.3mph 78% 0in 0.00 watts/m^2
06:49 68°F 61°F 30.22in 7.4mph 78% 0in 0.00 watts/m^2
06:54 68°F 60.6°F 30.22in 7.4mph 77% 0in 1.95 watts/m^2
06:59 68°F 60.6°F 30.23in 7.4mph 77% 0in 2.55 watts/m^2
07:04 68°F 60.6°F 30.22in 15mph 77% 0in 4.50 watts/m^2
07:09 68°F 60.3°F 30.22in 9.8mph 76% 0in 6.93 watts/m^2
07:14 68°F 60.3°F 30.22in 9.8mph 76% 0in 8.69 watts/m^2
07:19 68°F 60.3°F 30.22in 12.3mph 76% 0in 9.86 watts/m^2
07:24 68°F 60.3°F 30.22in 7.4mph 76% 0in 12.35 watts/m^2
07:29 68.2°F 60.4°F 30.22in 9.8mph 76% 0in 11.81 watts/m^2
07:34 68.2°F 60.4°F 30.22in 15mph 76% 0in 13.13 watts/m^2
07:39 68.4°F 60.6°F 30.22in 4.9mph 76% 0in 15.78 watts/m^2
07:44 68.4°F 61°F 30.22in 0mph 77% 0in 20.77 watts/m^2
07:49 68.4°F 61°F 30.23in 12.3mph 77% 0in 18.65 watts/m^2
07:54 68.5°F 61.2°F 30.22in 7.4mph 77% 0in 30.15 watts/m^2
07:59 68.5°F 61.2°F 30.22in 7.4mph 77% 0in 57.97 watts/m^2
08:04 68.5°F 60.8°F 30.22in 9.8mph 76% 0in 28.41 watts/m^2
08:09 68.5°F 60.3°F 30.22in 9.8mph 75% 0in 29.63 watts/m^2
08:14 68.5°F 60.8°F 30.22in 9.8mph 76% 0in 31.15 watts/m^2
08:19 68.7°F 61°F 30.22in 7.4mph 76% 0in 33.36 watts/m^2
08:24 68.7°F 61°F 30.22in 7.4mph 76% 0in 29.24 watts/m^2
08:29 68.7°F 61°F 30.22in 7.4mph 76% 0in 32.80 watts/m^2
08:34 68.7°F 61°F 30.22in 0mph 76% 0in 29.89 watts/m^2
08:39 68.9°F 61°F 30.23in 4.9mph 76% 0in 31.45 watts/m^2
08:44 68.9°F 61°F 30.22in 2.5mph 76% 0in 36.96 watts/m^2
08:49 68.9°F 61°F 30.22in 2.5mph 76% 0in 34.58 watts/m^2
08:54 68.9°F 61°F 30.22in 2.5mph 76% 0in 39.05 watts/m^2
08:59 68.9°F 61.5°F 30.22in 2.5mph 77% 0in 44.47 watts/m^2
09:04 68.9°F 61.5°F 30.21in 4.9mph 77% 0in 68.74 watts/m^2
09:09 68.9°F 61.5°F 30.22in 2.5mph 77% 0in 67.92 watts/m^2
09:14 69.1°F 61.7°F 30.22in 12.3mph 77% 0in 65.27 watts/m^2
09:19 69.1°F 61.7°F 30.21in 9.8mph 77% 0in 69.48 watts/m^2
09:24 68.9°F 61.5°F 30.21in 2.5mph 77% 0in 72.00 watts/m^2
09:29 69.1°F 61.7°F 30.21in 4.9mph 77% 0in 58.06 watts/m^2
09:34 69.1°F 61.7°F 30.21in 4.9mph 77% 0in 75.69 watts/m^2
09:39 69.1°F 61.7°F 30.21in 0mph 77% 0in 66.18 watts/m^2
09:44 69.1°F 61.7°F 30.21in 2.5mph 77% 0in 66.35 watts/m^2
09:49 69.1°F 61.7°F 30.21in 9.8mph 77% 0in 64.57 watts/m^2
09:54 69.1°F 62.1°F 30.21in 12.3mph 78% 0in 61.84 watts/m^2
09:59 69.1°F 62.1°F 30.21in 15mph 78% 0in 60.06 watts/m^2
10:04 69.1°F 62.4°F 30.21in 4.9mph 79% 0in 76.42 watts/m^2
10:09 68.9°F 61.9°F 30.20in 7.4mph 78% 0in 88.13 watts/m^2
10:14 68.9°F 62.2°F 30.21in 4.9mph 79% 0in 101.00 watts/m^2
10:19 68.9°F 62.2°F 30.21in 4.9mph 79% 0in 97.63 watts/m^2
10:24 68.9°F 61.9°F 30.21in 9.8mph 78% 0in 105.60 watts/m^2
10:29 68.9°F 61.9°F 30.21in 12.3mph 78% 0in 111.53 watts/m^2
10:34 68.9°F 61.9°F 30.20in 4.9mph 78% 0in 138.04 watts/m^2
10:39 68.9°F 61.9°F 30.20in 12.3mph 78% 0in 160.37 watts/m^2
10:44 69.1°F 62.1°F 30.20in 4.9mph 78% 0in 196.34 watts/m^2
10:49 69.1°F 62.1°F 30.19in 9.8mph 78% 0in 200.09 watts/m^2
10:54 69.3°F 62.2°F 30.20in 7.4mph 78% 0in 209.68 watts/m^2
10:59 69.3°F 62.6°F 30.19in 9.8mph 79% 0in 150.69 watts/m^2
11:04 69.4°F 62.6°F 30.19in 7.4mph 79% 0in 167.96 watts/m^2
11:09 69.4°F 62.2°F 30.19in 2.5mph 78% 0in 150.99 watts/m^2
11:14 69.4°F 62.6°F 30.19in 2.5mph 79% 0in 144.98 watts/m^2
11:19 69.4°F 62.2°F 30.19in 9.8mph 78% 0in 159.39 watts/m^2
11:24 69.4°F 62.2°F 30.19in 4.9mph 78% 0in 180.83 watts/m^2
11:29 69.4°F 62.2°F 30.18in 4.9mph 78% 0in 233.89 watts/m^2
11:34 69.4°F 61.9°F 30.18in 9.8mph 77% 0in 250.13 watts/m^2
11:39 69.6°F 62.1°F 30.17in 7.4mph 77% 0in 259.12 watts/m^2
11:44 69.8°F 61.9°F 30.18in 2.5mph 76% 0in 242.54 watts/m^2
11:49 70°F 61.3°F 30.16in 4.9mph 74% 0in 266.15 watts/m^2
11:54 70.2°F 61.5°F 30.16in 4.9mph 74% 0in 254.52 watts/m^2
11:59 70.3°F 61.7°F 30.16in 2.5mph 74% 0in 185.56 watts/m^2
12:04 70.5°F 61.9°F 30.16in 7.4mph 74% 0in 223.11 watts/m^2
12:09 70.7°F 62.1°F 30.16in 4.9mph 74% 0in 225.02 watts/m^2
12:14 70.9°F 62.2°F 30.15in 7.4mph 74% 0in 208.19 watts/m^2
12:19 70.7°F 62.4°F 30.15in 4.9mph 75% 0in 171.75 watts/m^2
12:24 70.7°F 62.4°F 30.15in 2.5mph 75% 0in 171.24 watts/m^2
12:29 70.7°F 62.4°F 30.15in 4.9mph 75% 0in 189.22 watts/m^2
12:34 70.7°F 62.1°F 30.15in 4.9mph 74% 0in 265.30 watts/m^2
12:39 70.7°F 62.1°F 30.15in 9.8mph 74% 0in 197.49 watts/m^2
12:44 70.9°F 61.9°F 30.15in 15mph 73% 0in 215.09 watts/m^2
12:49 70.9°F 62.6°F 30.15in 4.9mph 75% 0in 194.89 watts/m^2
12:54 70.9°F 62.6°F 30.14in 4.9mph 75% 0in 180.83 watts/m^2
12:59 70.9°F 62.6°F 30.14in 7.4mph 75% 0in 171.28 watts/m^2
13:04 70.9°F 62.6°F 30.14in 2.5mph 75% 0in 169.70 watts/m^2
13:09 70.9°F 63°F 30.14in 2.5mph 76% 0in 195.53 watts/m^2
13:14 70.9°F 62.6°F 30.14in 4.9mph 75% 0in 207.25 watts/m^2
13:19 70.9°F 62.6°F 30.14in 2.5mph 75% 0in 207.93 watts/m^2
13:24 71.1°F 62.8°F 30.13in 4.9mph 75% 0in 183.94 watts/m^2
13:29 71.1°F 63.1°F 30.13in 4.9mph 76% 0in 157.51 watts/m^2
13:34 71.2°F 63.3°F 30.13in 4.9mph 76% 0in 191.91 watts/m^2
13:39 71.2°F 63.3°F 30.12in 2.5mph 76% 0in 163.48 watts/m^2
13:44 71.2°F 63.7°F 30.12in 9.8mph 77% 0in 167.66 watts/m^2
13:49 71.2°F 63.7°F 30.12in 7.4mph 77% 0in 118.22 watts/m^2
13:54 71.2°F 63.7°F 30.12in 9.8mph 77% 0in 87.28 watts/m^2
13:59 71.2°F 64°F 30.12in 9.8mph 78% 0in 81.69 watts/m^2
14:04 71.1°F 63.9°F 30.12in 9.8mph 78% 0in 67.26 watts/m^2
14:09 71.1°F 63.9°F 30.11in 2.5mph 78% 0in 70.78 watts/m^2
14:14 70.9°F 63.7°F 30.11in 15mph 78% 0in 109.10 watts/m^2
14:19 70.9°F 63.7°F 30.11in 7.4mph 78% 0in 87.49 watts/m^2
14:24 70.9°F 63.7°F 30.11in 7.4mph 78% 0in 103.60 watts/m^2
14:29 70.7°F 63.5°F 30.11in 4.9mph 78% 0in 110.84 watts/m^2
14:34 70.9°F 63.7°F 30.11in 12.3mph 78% 0in 86.25 watts/m^2
14:39 70.9°F 63.7°F 30.10in 12.3mph 78% 0in 140.12 watts/m^2
14:44 70.9°F 63.7°F 30.10in 15mph 78% 0in 144.05 watts/m^2
14:49 70.9°F 63.7°F 30.10in 7.4mph 78% 0in 138.38 watts/m^2
14:54 70.9°F 63.7°F 30.10in 12.3mph 78% 0in 171.11 watts/m^2
14:59 71.1°F 63.9°F 30.10in 7.4mph 78% 0in 148.26 watts/m^2
15:04 71.1°F 63.9°F 30.09in 17.4mph 78% 0in 125.25 watts/m^2
15:09 71.1°F 63.9°F 30.10in 12.3mph 78% 0in 102.70 watts/m^2
15:14 71.2°F 64°F 30.09in 9.8mph 78% 0in 164.72 watts/m^2
15:19 71.2°F 63.7°F 30.09in 4.9mph 77% 0in 176.99 watts/m^2
15:24 71.4°F 64.2°F 30.09in 7.4mph 78% 0in 134.41 watts/m^2
15:29 71.6°F 64°F 30.08in 15mph 77% 0in 133.73 watts/m^2
15:34 71.6°F 64.4°F 30.09in 15mph 78% 0in 100.62 watts/m^2
15:39 71.6°F 64.4°F 30.08in 15mph 78% 0in 105.05 watts/m^2
15:44 71.6°F 64.4°F 30.09in 17.4mph 78% 0in 125.76 watts/m^2
Comma Delimited File
Powered by Weather Underground, Inc.